Regional Weather Roundup
Issued by NWS Upton, NY

Current Version | Previous Version | Text Only | Print | Product List | Glossary On
Versions: 1 2 3 4 5 6 7 8 9 10 11 12 13 14 15 16 17 18 19 20 21 22 23 24 25 26 27
000
ASUS41 KOKX 280209
RWROKX

REGIONAL WEATHER ROUNDUP
NATIONAL WEATHER SERVICE NEW YORK NY
1000 PM EDT SAT MAY 27 2017

NOTE: "FAIR" INDICATES FEW OR NO CLOUDS BELOW 12,000 FEET WITH NO
SIGNIFICANT WEATHER AND/OR OBSTRUCTIONS TO VISIBILITY.

NYZ071-072-176-178-NJZ106-104-280300-
NEW YORK CITY METRO AREA

CITY           SKY/WX    TMP DP  RH WIND       PRES   REMARKS
Central Park   CLOUDY    64  56  75 CALM      29.94R
Wall St Helipt CLOUDY    63  57  81 E7        29.93R
Bronx Bot Gard   N/A     63  54  72 N2        29.92F
LaGuardia APRT CLOUDY    63  55  75 SE7       29.92R
Kennedy INTL   MOCLDY    61  59  93 E9        29.93R
Breezy Point     N/A     59 N/A N/A SE8         N/A
Newark/Liberty MOCLDY    65  57  75 E8        29.91R
Teterboro      CLOUDY    66  57  72 SE5       29.90R
$$

NYZ177-179-078>081-280300-
LONG ISLAND NEW YORK

CITY           SKY/WX    TMP DP  RH WIND       PRES   REMARKS
Jones Beach      N/A     57 N/A N/A SE7         N/A
Matinecock PT    N/A     63 N/A N/A CALM        N/A
Farmingdale    CLOUDY    60  56  86 SE8       29.94R
MacArthur/ISP  CLOUDY    60  54  80 S9        29.94R
Shirley        CLOUDY    59  56  89 S7        29.94R
Mt Sinai Harb    N/A    N/A N/A N/A S9          N/A
Westhampton    PTCLDY    57  52  83 CALM      29.96R
East Hampton     N/A     56  51  83 CALM      29.94R
Montauk          N/A     58  52  80 VRB3      29.95R
$$

NYZ052-065-067-280300-
HUDSON VALLEY

CITY           SKY/WX    TMP DP  RH WIND       PRES   REMARKS
White Plains   CLOUDY    61  55  81 SE6       29.92R
Larchmont Harb   N/A     61 N/A N/A E8          N/A
Croton O-T Hud   N/A     64 N/A N/A CALM        N/A
Newburgh       CLOUDY    63  61  94 CALM      29.93R
Montgomery     CLOUDY    63  59  87 CALM      29.91R
Poughkeepsie   CLOUDY    64  57  78 CALM      29.90R
Albany         CLOUDY    65  54  67 CALM      29.91R
$$

NJZ001-105-106-008-010-013-015-019>022-104-280300-
NEW JERSEY

CITY           SKY/WX    TMP DP  RH WIND       PRES   REMARKS
Newark/Liberty MOCLDY    65  57  75 E8        29.91R
Teterboro      CLOUDY    66  57  72 SE5       29.90R
Caldwell       CLOUDY    66  57  72 CALM      29.92R
Somerville     PTCLDY    61  59  93 CALM      29.89R
Linden         CLOUDY    67  57  70 CALM      29.91R
Perth Amboy      N/A     66 N/A N/A SE3         N/A
Sussex         CLOUDY    63  59  87 CALM      29.93R
Andover          N/A     61  58  90 CALM      29.92R
Trenton        CLEAR     63  56  78 CALM      29.90R
Millville      CLOUDY    62  62 100 CALM      29.91R
Atlantic City  NOT AVBL
Wrightstown    CLOUDY    62  58  85 CALM      29.89R
Toms River     PTCLDY    60  57  89 CALM      29.93R
Belmar         PTCLDY    63  59  87 CALM      29.93R
$$

PAZ047>061-062-071-280300-
EASTERN PENNSYLVANIA

CITY           SKY/WX    TMP DP  RH WIND       PRES   REMARKS
Philadelphia   MOCLDY    67  58  72 SW5       29.91R
Allentown      PTCLDY    64  53  67 CALM      29.91R
Scranton       CLOUDY    64  56  75 E5        29.92R
$$

CTZ002-004>006-009-010-012-RIZ004-006-007-MAZ004-011-015-280300-
SOUTHERN NEW ENGLAND
 IN CT

CITY           SKY/WX    TMP DP  RH WIND       PRES   REMARKS
Bradley INTL   MOCLDY    63  54  72 S8        29.92R
Hartford       CLOUDY    60  54  80 S5        29.93R
Danbury        CLOUDY    60  56  86 E3        29.93R
Wtrbury/Oxford   N/A     57  52  82 SE3       29.94S
Bridgeport     CLOUDY    61  55  81 CALM      29.93R
Meriden        CLEAR     56  53  90 SW3       29.93R
New Haven      PTCLDY    55  51  86 CALM      29.94R
Chester          N/A     55  52  88 VRB5      29.94R
Groton         MOCLDY    56  52  86 SE6       29.93R
Wilimantic     MOCLDY    59  55  87 CALM      29.93R

 IN RI

CITY           SKY/WX    TMP DP  RH WIND       PRES   REMARKS
Providence     CLOUDY    58  52  80 S6        29.93R
Block Island   PTCLDY    56  51  84 SW8       29.94R
Westerly       PTCLDY    58  52  80 SW5       29.94R
 IN MA

CITY           SKY/WX    TMP DP  RH WIND       PRES   REMARKS
Boston         MOCLDY    55  49  80 SE9       29.94R
Worcester      CLOUDY    59  51  75 W7        29.93R
Westfield      CLOUDY    61  55  81 S5        29.91
Provincetown   PTCLDY    52  48  86 SE5       29.96R
Nantucket      MOCLDY    49  44  83 SE3       29.96R
$$

ANZ330-335-338-340-345-350-353-355-280300-
COASTAL MARINE OBSERVATIONS


STATION/POSITION TIME  SKY/WX   TEMP    WIND        PRES    VSBY  WAVE
                                AIR SEA DIR/SP/G                  HT/PER
                 (UTC)          (F)     (DEG/KT/KT) (MB)    (MI)  (FT/S)
NY HARB ENTRANCE 0150            60 58  150/ 12/ 12 1012.9          2/ 8
20 S FIRE ISLAND 0150            58 58  140/ 10/ 10 1012.8          3/ 8
GREAT SOUTH BAY  NOT AVBL
23 SSW MONTAUK P 0050            57 56              1013.6          3/ 8
15 E BARNEGAT LI 0130               59                N/A           2/ 8
HUDSON CANYON    0150            57 56  140/  4/  6 1013.5          2/ 8
KINGS POINT      0130            62 59  190/  5/  8 1012.9
EXECUTION ROCKS  0145            62                   N/A
CENTRAL LI SOUND NOT AVBL
EASTERN LI SOUND NOT AVBL
ROBBINS REEF     0124            63     110/  9/ 11 1013.1
$$


>>>>>>>>>>>>>>>>>>>>>>>>>>>> KEY <<<<<<<<<<<<<<<<<<<<<<<<<<<
>                                                          <
>     SKY/WX - Sky Condition/Present Weather               <
>     TMP    - Temperature in Fahrenheit                   <
>     DP     - Dew Point in Fahrenheit                     <
>     RH     - Relative Humidity in Percent                <
>     WIND   - Direction (from) and Speed in MPH           <
>     PRES   - Mean Sea Level Pressure (inches of Hg)      <
>     WCI    - Wind Chill Index                            <
>     VSB    - VISIBILITY IN MILES                         <
>     HX     - HEAT INDEX                                  <
>     TC     - TEMPERATURE IN CELSIUS                      <
>     VRB    - VARIABLE WIND DIRECTION                     <
>                                                          <
>>>>>>>>>>>>>>>>>>>>>>>>>>>> KEY <<<<<<<<<<<<<<<<<<<<<<<<<<<




USA.gov is the U.S. government's official web portal to all federal, state and local government web resources and services.